Content
SEND FEEDBACK

Daily
Averages
Monthly
Summary
Canada

WATERLOO WELLING, ONTARIO


Home > North America > Canada > Ontario
Elevation: 1031 feet     Latitude: 43 27N     Longitude: 080 23W

WEATHER
 
SELECT A DAY
Number of Records: 258,774;   Date Range: 1/1/95 - 7/30/14
 
SHARE

PRINT THIS DATA

[ ← Previous Day ]
WEATHER ALMANAC - JANUARY 1, 2013
[ Next Day → ]
[ °C ]   °F
Weather ElementAverageHighLow
Temperature20.4 °F26.6 °F (12:33 am)15.8 °F (5:00 pm)
Dewpoint13.5 °F19.4 °F (12:33 am)6.8 °F (2:00 pm)
Humidity74 %86 % (10:00 pm)48 % (1:00 pm)
Barometer30.01 in30.08 in (10:16 am)29.93 in (12:33 am)
Wind Speed10.4 mph15 mph (12:33 am)
Wind Gust21.9 mph (12:33 am)
Weather ElementAverage
Visibility9 mi
Wind DirectionWNW (294.5 °)

Weather ElementTotal
Precipitation---
Heating Degree Days43.8 (Base 65)
Averaged from 49 records on January 1, 2013
WEATHER CONDITIONS BREAKOUT
WIND DIRECTION BREAKOUT
WEATHER BY HOUR - JANUARY 1, 2013
[ °C ]   °F
Local TimeTemperatureDewpointHumidityBarometerVisibilityWind DirectionWind SpeedGust SpeedPrecipitationEventsConditions
12:33 AM26.6 °F19.4 °F74 %29.93 in9.0 miWNW (300°)15.0 mph21.9 mphSnowLight Snow
1:00 AM26.0 °F18.0 °F61 %29.93 in10.0 miWNW (300°)10.4 mphSnowLight Snow
1:00 AM26.6 °F17.6 °F69 %29.93 in9.0 miWNW (300°)9.2 mphSnowLight Snow
1:36 AM24.8 °F15.8 °F69 %29.94 in9.0 miWNW (300°)11.5 mphOvercast
1:53 AM24.8 °F17.6 °F74 %29.95 in9.0 miWNW (290°)13.8 mphSnowLight Snow
2:00 AM24.8 °F17.6 °F74 %29.95 in9.0 miWNW (290°)13.8 mphSnowLight Snow
2:05 AM24.8 °F15.8 °F69 %29.96 in9.0 miWNW (290°)13.8 mphOvercast
2:14 AM24.8 °F17.6 °F74 %29.96 in9.0 miWNW (290°)12.7 mphSnowLight Snow
4:00 AM23.0 °F15.8 °F74 %29.97 in9.0 miWNW (300°)11.5 mph18.4 mphSnowLight Snow
4:22 AM23.0 °F15.8 °F74 %29.97 in9.0 miWNW (300°)9.2 mphOvercast
4:32 AM23.0 °F14.0 °F68 %29.97 in9.0 miWNW (290°)12.7 mphSnowLight Snow
4:43 AM21.2 °F14.0 °F74 %29.98 in9.0 miWest (280°)11.5 mph17.3 mphMostly Cloudy
5:00 AM21.2 °F14.0 °F74 %29.98 in9.0 miWest (260°)11.5 mphMostly Cloudy
5:29 AM21.2 °F15.8 °F80 %29.98 in9.0 miWest (260°)13.8 mph20.7 mphSnowLight Snow
5:38 AM21.2 °F15.8 °F80 %29.98 in9.0 miWest (270°)11.5 mphOvercast
5:53 AM21.2 °F15.8 °F80 %29.98 in9.0 miWest (270°)11.5 mph20.7 mphSnowLight Snow
6:00 AM21.2 °F15.8 °F80 %29.99 in9.0 miWest (270°)15.0 mphSnowLight Snow
6:43 AM21.2 °F15.8 °F80 %29.99 in9.0 miWNW (290°)13.8 mph19.6 mphSnowLight Snow
7:00 AM21.2 °F15.8 °F80 %30.00 in9.0 miWNW (300°)10.4 mphSnowLight Snow
7:00 AM22.0 °F17.0 °F71 %30.00 in9.0 miWNW (300°)11.5 mphSnowLight Snow
7:25 AM21.2 °F15.8 °F80 %30.00 in9.0 miNNW (330°)12.7 mphSnowLight Snow
7:27 AM21.2 °F15.8 °F80 %30.00 in9.0 miNNW (330°)12.7 mphSnowLight Snow
7:33 AM21.2 °F15.8 °F80 %30.01 in9.0 miNNW (330°)10.4 mphSnowLight Snow
8:00 AM19.4 °F14.0 °F80 %30.02 in9.0 miNNW (340°)9.2 mphSnowLight Snow
8:54 AM19.4 °F14.0 °F80 %30.05 in9.0 miNW (320°)6.9 mphSnowLight Snow
9:00 AM19.4 °F14.0 °F80 %30.05 in9.0 miNNW (330°)8.1 mphSnowLight Snow
9:26 AM19.4 °F14.0 °F80 %30.05 in9.0 miNNW (330°)10.4 mphSnowLight Snow
9:34 AM19.4 °F14.0 °F80 %30.05 in9.0 miNNW (340°)9.2 mphSnowLight Snow
10:00 AM17.6 °F12.2 °F79 %30.07 in9.0 miNNW (330°)8.1 mphSnowLight Snow
10:16 AM17.6 °F12.2 °F79 %30.08 in9.0 miNNW (340°)11.5 mphSnowLight Snow
10:26 AM17.6 °F10.4 °F73 %30.08 in9.0 miNNW (340°)10.4 mph18.4 mphOvercast
11:00 AM17.6 °F10.4 °F73 %30.08 in9.0 miNW (320°)9.2 mphMostly Cloudy
12:00 PM17.6 °F8.6 °F68 %30.06 in9.0 miNW (320°)10.4 mph18.4 mphClear
1:00 PM19.0 °F8.0 °F48 %30.04 in10.0 miNNW (340°)10.4 mph
1:00 PM19.4 °F8.6 °F63 %30.04 in9.0 miNorth (350°)9.2 mphClear
2:00 PM19.4 °F6.8 °F58 %30.02 in9.0 miNNW (330°)9.2 mphClear
3:00 PM19.4 °F8.6 °F63 %30.03 in9.0 miNW (320°)9.2 mphClear
4:00 PM19.4 °F8.6 °F63 %30.04 in9.0 miWNW (290°)8.1 mphClear
5:00 PM15.8 °F6.8 °F68 %30.06 in9.0 miWest (280°)5.8 mphClear
6:00 PM15.8 °F8.6 °F73 %30.07 in9.0 miWSW (240°)8.1 mphMostly Cloudy
6:20 PM15.8 °F10.4 °F79 %30.06 in9.0 miWSW (240°)8.1 mphSnowLight Snow
6:31 PM15.8 °F10.4 °F79 %30.06 in9.0 miWSW (240°)6.9 mphOvercast
6:41 PM17.6 °F10.4 °F73 %30.06 in9.0 miWSW (250°)6.9 mphSnowLight Snow
7:00 PM17.6 °F10.4 °F73 %30.06 in9.0 miWSW (240°)6.9 mphSnowLight Snow
7:00 PM17.0 °F11.0 °F68 %30.06 in10.0 miWSW (240°)6.9 mphSnowLight Snow
8:00 PM17.6 °F12.2 °F79 %30.04 in8.0 miWest (270°)6.9 mphSnowLight Snow
9:00 PM19.4 °F14.0 °F80 %30.04 in9.0 miWSW (250°)9.2 mphSnowLight Snow
10:00 PM19.4 °F15.8 °F86 %30.04 in9.0 miWSW (240°)10.4 mphSnowLight Snow
11:00 PM19.4 °F14.0 °F80 %30.04 in9.0 miWest (260°)12.7 mphSnowLight Snow
Hourly data recorded from CYKF, located miles away from Waterloo Welling, Ontario







STORIES FROM OUR PARTNERS